Location: Newark
(21.1200°N, 73.4000°E)
Time: 07:57:05
(UTC+00:00)

A-11 Canister half - All Passes

Search period start: 21 January 2020 00:00
Search period end: 31 January 2020 00:00
Orbit: 1516 x 1683 km, 47.2° (Epoch: 20 January)

Date Brightness Start Highest point End Pass type
(mag) Time Alt. Az. Time Alt. Az. Time Alt. Az.
21 Jan - 00:36:48 10° NNW 00:42:57 19° NNE 00:49:09 10° ENE visible
21 Jan - 02:40:14 10° NW 02:49:27 61° NE 02:58:56 10° ESE daylight
21 Jan - 04:45:54 10° WNW 04:54:01 33° SW 05:02:24 10° S daylight
21 Jan - 15:47:11 10° SSE 15:52:43 17° SE 15:58:08 10° E visible
21 Jan - 17:47:21 10° SW 17:56:59 83° SE 18:06:19 10° NE visible
21 Jan - 19:54:49 10° W 20:02:33 28° NNW 20:10:12 10° NNE night (unlit)
21 Jan - 22:07:34 10° NNW 22:10:47 12° N 22:14:01 10° NNE visible
22 Jan - 00:13:59 10° NNW 00:19:52 18° NNE 00:25:48 10° ENE visible
22 Jan - 02:17:23 10° NW 02:26:31 57° NE 02:35:54 10° ESE daylight
22 Jan - 04:22:48 10° WNW 04:31:08 36° SW 04:39:44 10° S daylight
22 Jan - 15:24:59 10° SSE 15:29:50 15° SE 15:34:35 10° E visible
22 Jan - 17:24:27 10° SW 17:34:05 78° SE 17:43:25 10° NE visible
22 Jan - 19:31:35 10° W 19:39:32 30° NNW 19:47:24 10° NNE night (unlit)
22 Jan - 21:44:13 10° NNW 21:47:38 12° N 21:51:03 10° NNE visible
22 Jan - 23:51:10 10° NNW 23:56:47 17° NNE 00:02:25 10° ENE visible
23 Jan - 01:54:32 10° NW 02:03:34 53° NE 02:12:50 10° ESE daylight
23 Jan - 03:59:46 10° WNW 04:08:15 39° SW 04:17:02 10° SSE daylight
23 Jan - 15:02:57 10° SSE 15:06:57 13° SE 15:10:53 10° E visible
23 Jan - 17:01:34 10° SW 17:11:12 72° SE 17:20:30 10° NE visible
23 Jan - 19:08:23 10° W 19:16:32 32° NW 19:24:35 10° NNE night (unlit)
23 Jan - 21:20:51 10° NNW 21:24:29 13° N 21:28:08 10° NNE visible
23 Jan - 23:28:21 10° NNW 23:33:41 16° NNE 23:39:02 10° NE visible
24 Jan - 01:31:41 10° NNW 01:40:38 49° NE 01:49:45 10° ESE daylight
24 Jan - 03:36:44 10° WNW 03:45:22 43° SW 03:54:18 10° SSE daylight
24 Jan - 14:41:14 10° SE 14:44:03 11° SE 14:46:50 10° ESE visible
24 Jan - 16:38:43 10° SSW 16:48:18 67° SE 16:57:34 10° NE visible
24 Jan - 18:45:11 10° W 18:53:33 34° NW 19:01:46 10° NNE night (unlit)
24 Jan - 20:57:27 10° NW 21:01:21 13° N 21:05:14 10° NNE visible
24 Jan - 23:05:32 10° NNW 23:10:35 15° NNE 23:15:39 10° NE visible
25 Jan - 01:08:51 10° NNW 01:17:41 46° NE 01:26:40 10° ESE visible
25 Jan - 03:13:42 10° WNW 03:22:30 46° SW 03:31:33 10° SSE daylight
25 Jan - 16:15:51 10° SSW 16:25:25 62° SE 16:34:38 10° NE visible
25 Jan - 18:22:00 10° W 18:30:34 36° NW 18:38:57 10° NNE night (unlit)
25 Jan - 20:34:03 10° NW 20:38:12 13° NNW 20:42:22 10° NNE night (unlit)
25 Jan - 22:42:41 10° NNW 22:47:28 15° NNE 22:52:15 10° NE visible
26 Jan - 00:46:02 10° NNW 00:54:43 43° NE 01:03:33 10° ESE visible
26 Jan - 02:50:43 10° WNW 02:59:37 50° SW 03:08:47 10° SSE daylight
26 Jan - 15:53:01 10° SSW 16:02:30 58° SE 16:11:40 10° NE visible
26 Jan - 17:58:49 10° WSW 18:07:34 39° NW 18:16:08 10° NNE visible
26 Jan - 20:10:38 10° NW 20:15:05 14° NNW 20:19:30 10° NNE night (unlit)
26 Jan - 22:19:50 10° NNW 22:24:21 14° NNE 22:28:51 10° NE visible
27 Jan - 00:23:12 10° NNW 00:31:46 40° NE 00:40:26 10° ESE visible
27 Jan - 02:27:45 10° NW 02:36:44 55° SW 02:46:00 10° SSE daylight
27 Jan - 15:30:13 10° SSW 15:39:37 53° SE 15:48:42 10° NE visible
27 Jan - 17:35:41 10° WSW 17:44:36 42° NW 17:53:18 10° NNE visible
27 Jan - 19:47:13 10° NW 19:51:57 15° NNW 19:56:39 10° NNE night (unlit)
27 Jan - 21:56:58 10° NNW 22:01:13 14° NNE 22:05:28 10° NE visible
28 Jan - 00:00:23 10° NNW 00:08:47 37° NE 00:17:18 10° ESE visible
28 Jan - 02:04:47 10° NW 02:13:51 59° SW 02:23:11 10° SSE daylight
28 Jan - 15:07:25 10° SSW 15:16:44 49° SE 15:25:43 10° ENE visible
28 Jan - 17:12:33 10° WSW 17:21:38 45° NW 17:30:29 10° NNE visible
28 Jan - 19:23:48 10° NW 19:28:50 15° NNW 19:33:50 10° NNE night (unlit)
28 Jan - 21:34:05 10° NNW 21:38:05 13° NNE 21:42:04 10° NE visible
28 Jan - 23:37:34 10° NNW 23:45:48 35° NE 23:54:08 10° E visible
29 Jan - 01:41:50 10° NW 01:50:58 64° SW 02:00:21 10° SSE daylight
29 Jan - 03:54:08 10° WSW 03:55:09 10° SW 03:56:12 10° SW daylight
29 Jan - 14:44:39 10° SSW 14:53:50 45° SE 15:02:43 10° ENE visible
29 Jan - 16:49:26 10° WSW 16:58:40 48° NW 17:07:39 10° NNE visible
29 Jan - 19:00:24 10° NW 19:05:43 16° NNW 19:11:00 10° NNE night (unlit)
29 Jan - 21:11:11 10° NNW 21:14:57 13° N 21:18:42 10° NE visible
29 Jan - 23:14:44 10° NNW 23:22:49 33° NE 23:30:58 10° E visible
30 Jan - 01:18:53 10° NW 01:28:05 69° SW 01:37:31 10° SSE visible
30 Jan - 03:29:15 10° WSW 03:32:16 12° SW 03:35:20 10° SW daylight
30 Jan - 14:21:54 10° SSW 14:30:57 42° SE 14:39:42 10° ENE visible
30 Jan - 16:26:21 10° WSW 16:35:43 51° NW 16:44:49 10° NE visible
30 Jan - 18:36:59 10° WNW 18:42:37 17° NNW 18:48:11 10° NNE night (unlit)
30 Jan - 20:48:15 10° NNW 20:51:48 12° N 20:55:21 10° NNE visible
30 Jan - 22:51:55 10° NNW 22:59:49 31° NNE 23:07:46 10° E visible
